• In Kazakhstan
  • List of Countries
  • For 7 days
  • Water Temperature
  • Satellite Maps
  • Weather Map
  • News
  • Weather Widgets
  • user-avatar
    Login

    Hourly Weather Wien

    Today, 26 July, Wednesday

    Time Temperature Precipitation Wind Pressure Humidity
    00:00 +14°C° 0 mm 4 mps 736 mmHg 74%
    01:00 +14°C° 0 mm 4 mps 736 mmHg 76%
    02:00 +14°C° 0 mm 4 mps 736 mmHg 76%
    03:00 +13°C° 0 mm 4 mps 736 mmHg 77%
    04:00 +13°C° 0 mm 3 mps 736 mmHg 77%
    05:00 +14°C° 0 mm 4 mps 736 mmHg 73%
    06:00 +15°C° 0 mm 4 mps 736 mmHg 69%
    07:00 +17°C° 0 mm 2 mps 735 mmHg 69%
    08:00 +17°C° 0.1 mm 3 mps 735 mmHg 69%
    09:00 +17°C° 0.1 mm 3 mps 735 mmHg 69%
    10:00 +17°C° 0.1 mm 3 mps 735 mmHg 69%
    11:00 +18°C° 0.1 mm 4 mps 735 mmHg 68%
    12:00 +18°C° 0.1 mm 4 mps 735 mmHg 66%
    13:00 +19°C° 0.1 mm 5 mps 735 mmHg 65%
    14:00 +19°C° 0.1 mm 5 mps 735 mmHg 63%
    15:00 +19°C° 0.1 mm 6 mps 736 mmHg 61%
    16:00 +20°C° 0.1 mm 7 mps 736 mmHg 59%
    17:00 +18°C° 0 mm 7 mps 736 mmHg 63%
    18:00 +17°C° 0 mm 6 mps 736 mmHg 66%
    19:00 +17°C° 0 mm 6 mps 736 mmHg 70%
    20:00 +16°C° 0.2 mm 5 mps 737 mmHg 74%
    21:00 +15°C° 0.2 mm 5 mps 737 mmHg 78%
    22:00 +15°C° 0.2 mm 5 mps 738 mmHg 83%
    23:00 +15°C° 0.1 mm 5 mps 738 mmHg 83%

    Tomorrow, 27 July, Thursday

    Time Temperature Precipitation Wind Pressure Humidity
    00:00 +15°C° 0.1 mm 5 mps 738 mmHg 83%
    01:00 +15°C° 0.1 mm 5 mps 738 mmHg 83%
    02:00 +14°C° 0.2 mm 4 mps 738 mmHg 84%
    03:00 +14°C° 0.2 mm 4 mps 738 mmHg 85%
    04:00 +14°C° 0.2 mm 4 mps 738 mmHg 87%
    05:00 +14°C° 0.6 mm 4 mps 738 mmHg 87%
    06:00 +15°C° 0.6 mm 4 mps 739 mmHg 87%
    07:00 +15°C° 0.6 mm 5 mps 739 mmHg 87%
    08:00 +16°C° 0.5 mm 5 mps 739 mmHg 85%
    09:00 +16°C° 0.5 mm 5 mps 739 mmHg 83%
    10:00 +17°C° 0.5 mm 5 mps 739 mmHg 81%
    11:00 +19°C° 0.2 mm 5 mps 739 mmHg 75%
    12:00 +20°C° 0.2 mm 5 mps 739 mmHg 69%
    13:00 +21°C° 0.2 mm 5 mps 739 mmHg 64%
    14:00 +22°C° 0.1 mm 5 mps 739 mmHg 62%
    15:00 +22°C° 0.1 mm 5 mps 739 mmHg 61%
    16:00 +22°C° 0.1 mm 4 mps 739 mmHg 59%
    17:00 +21°C° 0.1 mm 4 mps 739 mmHg 63%
    18:00 +20°C° 0.1 mm 4 mps 739 mmHg 68%
    19:00 +19°C° 0.1 mm 4 mps 739 mmHg 72%
    20:00 +18°C° 0 mm 3 mps 740 mmHg 75%
    21:00 +17°C° 0 mm 3 mps 740 mmHg 78%
    22:00 +16°C° 0 mm 3 mps 740 mmHg 81%
    23:00 +17°C° 0.1 mm 3 mps 740 mmHg 81%

    Day after tomorrow, 28 July, Friday

    Time Temperature Precipitation Wind Pressure Humidity
    00:00 +17°C° 0.1 mm 2 mps 740 mmHg 82%
    01:00 +17°C° 0.1 mm 2 mps 741 mmHg 83%
    02:00 +17°C° 0.1 mm 2 mps 741 mmHg 84%
    03:00 +17°C° 0.1 mm 2 mps 741 mmHg 86%
    04:00 +17°C° 0.1 mm 2 mps 741 mmHg 87%
    05:00 +18°C° 0 mm 2 mps 741 mmHg 83%
    06:00 +19°C° 0 mm 3 mps 741 mmHg 79%
    07:00 +20°C° 0 mm 3 mps 741 mmHg 74%
    08:00 +22°C° 0 mm 3 mps 741 mmHg 66%
    09:00 +25°C° 0 mm 4 mps 741 mmHg 58%
    10:00 +27°C° 0 mm 4 mps 741 mmHg 49%
    11:00 +27°C° 0.1 mm 5 mps 741 mmHg 50%
    12:00 +27°C° 0.1 mm 5 mps 741 mmHg 50%
    13:00 +27°C° 0.1 mm 5 mps 742 mmHg 51%
    14:00 +26°C° 0 mm 5 mps 742 mmHg 54%
    15:00 +25°C° 0 mm 5 mps 742 mmHg 56%
    16:00 +23°C° 0 mm 5 mps 742 mmHg 59%
    17:00 +22°C° 0 mm 5 mps 742 mmHg 63%
    18:00 +22°C° 0 mm 4 mps 742 mmHg 66%
    19:00 +21°C° 0 mm 4 mps 742 mmHg 69%
    20:00 +20°C° 0 mm 4 mps 743 mmHg 71%
    21:00 +20°C° 0 mm 4 mps 744 mmHg 74%
    22:00 +19°C° 0 mm 4 mps 744 mmHg 76%
    23:00 +19°C° 0 mm 4 mps 744 mmHg 78%

    29 July, Saturday

    Time Temperature Precipitation Wind Pressure Humidity
    00:00 +18°C° 0 mm 4 mps 745 mmHg 80%
    01:00 +18°C° 0 mm 3 mps 745 mmHg 82%
    02:00 +17°C° 0 mm 3 mps 745 mmHg 84%
    03:00 +17°C° 0 mm 2 mps 745 mmHg 86%
    04:00 +16°C° 0 mm 2 mps 745 mmHg 88%
    05:00 +19°C° 0 mm 1 mps 745 mmHg 82%
    06:00 +20°C° 0 mm 1 mps 746 mmHg 75%
    07:00 +21°C° 0 mm 1 mps 746 mmHg 69%
    08:00 +23°C° 0 mm 1 mps 746 mmHg 62%
    09:00 +25°C° 0 mm 2 mps 746 mmHg 56%
    10:00 +27°C° 0 mm 2 mps 746 mmHg 49%
    11:00 +29°C° 0 mm 2 mps 745 mmHg 46%
    12:00 +30°C° 0 mm 2 mps 745 mmHg 43%
    13:00 +33°C° 0 mm 3 mps 745 mmHg 40%
    14:00 +33°C° 0 mm 3 mps 744 mmHg 39%
    15:00 +33°C° 0 mm 3 mps 744 mmHg 38%
    16:00 +34°C° 0 mm 2 mps 744 mmHg 38%
    17:00 +31°C° 0 mm 2 mps 744 mmHg 43%
    18:00 +29°C° 0 mm 2 mps 744 mmHg 49%
    19:00 +28°C° 0 mm 2 mps 744 mmHg 54%
    20:00 +27°C° 0 mm 2 mps 744 mmHg 58%
    21:00 +26°C° 0 mm 2 mps 744 mmHg 61%
    22:00 +25°C° 0 mm 2 mps 744 mmHg 64%
    23:00 +24°C° 0.1 mm 1 mps 744 mmHg 66%

    30 July, Sunday

    Time Temperature Precipitation Wind Pressure Humidity
    00:00 +24°C° 0.1 mm 1 mps 744 mmHg 69%
    01:00 +23°C° 0.1 mm 1 mps 744 mmHg 72%
    02:00 +23°C° 0.4 mm 1 mps 744 mmHg 75%
    03:00 +22°C° 0.4 mm 1 mps 744 mmHg 79%
    04:00 +22°C° 0.4 mm 1 mps 744 mmHg 82%
    05:00 +22°C° 0.2 mm 1 mps 744 mmHg 81%
    06:00 +23°C° 0.2 mm 1 mps 744 mmHg 79%
    07:00 +24°C° 0.2 mm 1 mps 744 mmHg 77%
    08:00 +26°C° 0.1 mm 1 mps 744 mmHg 70%
    09:00 +27°C° 0.1 mm 1 mps 744 mmHg 63%
    10:00 +29°C° 0.1 mm 2 mps 744 mmHg 55%
    11:00 +31°C° 0 mm 2 mps 743 mmHg 50%
    12:00 +32°C° 0 mm 2 mps 743 mmHg 45%
    13:00 +35°C° 0 mm 3 mps 742 mmHg 39%
    14:00 +35°C° 0 mm 2 mps 742 mmHg 38%
    15:00 +36°C° 0 mm 2 mps 742 mmHg 37%
    16:00 +36°C° 0 mm 2 mps 742 mmHg 35%
    17:00 +34°C° 0 mm 2 mps 742 mmHg 40%
    18:00 +32°C° 0 mm 1 mps 742 mmHg 46%
    19:00 +30°C° 0 mm 1 mps 742 mmHg 51%
    20:00 +29°C° 0.1 mm 1 mps 742 mmHg 54%
    21:00 +27°C° 0.1 mm 1 mps 743 mmHg 58%
    22:00 +26°C° 0.1 mm 1 mps 743 mmHg 61%
    23:00 +25°C° 0 mm 1 mps 743 mmHg 63%

    31 July, Monday

    Time Temperature Precipitation Wind Pressure Humidity
    00:00 +25°C° 0 mm 1 mps 743 mmHg 65%
    01:00 +25°C° 0 mm 1 mps 743 mmHg 67%
    02:00 +24°C° 0.2 mm 1 mps 743 mmHg 70%
    03:00 +23°C° 0.2 mm 1 mps 743 mmHg 73%
    04:00 +23°C° 0.2 mm 1 mps 744 mmHg 77%
    05:00 +24°C° 0 mm 1 mps 744 mmHg 73%
    06:00 +25°C° 0 mm 1 mps 744 mmHg 69%
    07:00 +27°C° 0 mm 1 mps 744 mmHg 65%
    08:00 +28°C° 0 mm 1 mps 745 mmHg 59%
    09:00 +30°C° 0 mm 1 mps 745 mmHg 53%
    10:00 +32°C° 0 mm 1 mps 745 mmHg 47%
    11:00 +34°C° 0 mm 2 mps 744 mmHg 43%
    12:00 +36°C° 0 mm 2 mps 744 mmHg 39%
    13:00 +37°C° 0 mm 3 mps 744 mmHg 35%
    14:00 +37°C° 0 mm 3 mps 744 mmHg 33%
    15:00 +38°C° 0 mm 3 mps 743 mmHg 31%
    16:00 +38°C° 0 mm 3 mps 743 mmHg 29%
    17:00 +36°C° 0 mm 3 mps 743 mmHg 35%
    18:00 +34°C° 0 mm 2 mps 743 mmHg 40%
    19:00 +32°C° 0 mm 2 mps 743 mmHg 46%
    20:00 +30°C° 0 mm 2 mps 743 mmHg 48%
    21:00 +29°C° 0 mm 2 mps 743 mmHg 51%
    22:00 +28°C° 0 mm 2 mps 743 mmHg 53%
    23:00 +28°C° 0 mm 2 mps 743 mmHg 54%
    Show more